Location: Peach Mountain Observatory
(42.3967°N, 83.9367°W)
Time: 20:10:49
(UTC-05:00)

S-56A Canister/Altair - Pass Details

Date: 31 January 2020
Orbit: 633 x 2500 km, 38.9° (Epoch: 26 February)

Event Time Altitude Azimuth Distance (km) Brightness Sun altitude
Rises 01:01:44 0° 269° (W) 3,122 - -65.0°
Reaches altitude 10° 01:06:12 10° 231° (SW) 2,033 - -64.9°
Maximum altitude 01:07:15 11° 217° (SW) 1,967 - -64.8°
Drops below altitude 10° 01:08:17 10° 203° (SSW) 2,003 - -64.8°
Sets 01:12:31 0° 164° (SSE) 2,953 - -64.6°
